K7SFN Weather Reports


Display with metric or nautical units.
time (UTC)temp
F
wind
direction
speed
MPH
gust
MPH
rain 1hr
in
rain 24hr
in
rain mn
in
humidity
%
barometer
mb
20260906223504 75 301 6.0 3.0 0.00 0.00 0.00 30 1015.4
20260906223005 75 301 6.0 3.0 0.00 0.00 0.00 30 1015.4
20260906222505 75 301 6.0 3.0 0.00 0.00 0.00 30 1015.4
20260906221505 75 301 6.0 3.0 0.00 0.00 0.00 30 1015.4
20260906221004 75 301 6.0 3.0 0.00 0.00 0.00 30 1015.4
20260906220504 75 301 6.0 3.0 0.00 0.00 0.00 30 1015.4
20260906220005 75 301 6.0 3.0 0.00 0.00 0.00 30 1015.4
20260906215504 75 301 6.0 3.0 0.00 0.00 0.00 30 1015.4
20260906215004 75 301 6.0 3.0 0.00 0.00 0.00 30 1015.4
20260906214504 75 301 6.0 3.0 0.00 0.00 0.00 30 1015.4
20260906214005 75 301 6.0 3.0 0.00 0.00 0.00 30 1015.4
20260906213504 75 301 6.0 3.0 0.00 0.00 0.00 30 1015.4
20260906213005 75 301 6.0 3.0 0.00 0.00 0.00 30 1015.4
20260906212504 75 301 6.0 3.0 0.00 0.00 0.00 30 1015.4
20260906212005 75 301 6.0 3.0 0.00 0.00 0.00 30 1015.4
20260906211504 75 301 6.0 3.0 0.00 0.00 0.00 30 1015.4
20260906211005 75 301 6.0 3.0 0.00 0.00 0.00 30 1015.4
20260906210505 75 301 6.0 3.0 0.00 0.00 0.00 30 1015.4
20260906210005 75 301 6.0 3.0 0.00 0.00 0.00 30 1015.4
20260906205505 75 301 6.0 3.0 0.00 0.00 0.00 30 1015.4
20260906205005 75 301 6.0 3.0 0.00 0.00 0.00 30 1015.4
20260906204504 75 301 6.0 3.0 0.00 0.00 0.00 30 1015.4
20260906204004 75 301 6.0 3.0 0.00 0.00 0.00 30 1015.4
20260906203505 75 301 6.0 3.0 0.00 0.00 0.00 30 1015.4
20260906202505 74 298 6.0 12.0 0.00 0.00 0.00 29 1015.2
20260906201504 75 311 5.0 13.0 0.00 0.00 0.00 30 1015.2
20260906200505 74 301 4.0 10.0 0.00 0.00 0.00 29 1015.4
20260906194004 74 302 5.0 8.0 0.00 0.00 0.00 30 1015.5
20260906193505 74 299 5.0 14.0 0.00 0.00 0.00 29 1015.5
20260906193004 74 320 4.0 9.0 0.00 0.00 0.00 30 1015.5
20260906192505 74 298 5.0 13.0 0.00 0.00 0.00 30 1015.6
20260906192005 74 299 5.0 10.0 0.00 0.00 0.00 28 1015.6
20260906191505 74 307 5.0 12.0 0.00 0.00 0.00 28 1015.7
20260906191005 74 302 5.0 13.0 0.00 0.00 0.00 27 1015.7
20260906190504 74 263 3.0 10.0 0.00 0.00 0.00 27 1015.7
20260906185505 74 304 6.0 13.0 0.00 0.00 0.00 24 1015.8
20260906185004 74 306 5.0 16.0 0.00 0.00 0.00 25 1015.7
20260906184505 74 289 6.0 12.0 0.00 0.00 0.00 23 1016.0
20260906184004 74 258 4.0 14.0 0.00 0.00 0.00 23 1016.1
20260906183504 74 278 5.0 13.0 0.00 0.00 0.00 24 1016.0
20260906183004 74 300 5.0 14.0 0.00 0.00 0.00 22 1016.0
20260906182504 74 268 7.0 20.0 0.00 0.00 0.00 24 1016.1
20260906182004 74 296 2.0 7.0 0.00 0.00 0.00 27 1016.1
20260906181504 74 239 3.0 8.0 0.00 0.00 0.00 29 1016.1
20260906181004 73 199 3.0 8.0 0.00 0.00 0.00 28 1016.2
20260906180504 73 219 6.0 10.0 0.00 0.00 0.00 28 1016.2
20260906180005 73 233 5.0 10.0 0.00 0.00 0.00 30 1016.3
20260906175004 72 233 2.0 9.0 0.00 0.00 0.00 31 1016.3
20260906174505 71 224 4.0 8.0 0.00 0.00 0.00 32 1016.3
20260906173504 71 271 3.0 7.0 0.00 0.00 0.00 30 1016.4
20260906173004 70 231 5.0 9.0 0.00 0.00 0.00 33 1016.4
20260906172505 70 253 2.0 8.0 0.00 0.00 0.00 33 1016.3
20260906172004 70 244 2.0 8.0 0.00 0.00 0.00 33 1016.3
20260906171504 70 225 0.0 2.0 0.00 0.00 0.00 35 1016.3
20260906171004 70 228 4.0 9.0 0.00 0.00 0.00 35 1016.3
20260906170504 69 249 3.0 8.0 0.00 0.00 0.00 35 1016.3
20260906170005 69 242 0.0 6.0 0.00 0.00 0.00 36 1016.4
20260906165504 68 210 2.0 7.0 0.00 0.00 0.00 37 1016.4
20260906164504 67 178 2.0 12.0 0.00 0.00 0.00 39 1016.5
20260906164004 67 215 2.0 8.0 0.00 0.00 0.00 40 1016.5
20260906163504 66 244 1.0 6.0 0.00 0.00 0.00 44 1016.6
20260906162504 65 195 0.0 0.0 0.00 0.00 0.00 45 1016.6
20260906162004 64 195 1.0 5.0 0.00 0.00 0.00 48 1016.8
20260906161504 64 203 0.0 0.0 0.00 0.00 0.00 49 1016.9
20260906161005 63 203 0.0 0.0 0.00 0.00 0.00 50 1016.9
20260906160505 63 203 0.0 0.0 0.00 0.00 0.00 53 1016.9
20260906160004 62 203 0.0 0.0 0.00 0.00 0.00 52 1017.0
20260906155504 62 203 0.0 0.0 0.00 0.00 0.00 53 1017.0
20260906155005 61 203 0.0 0.0 0.00 0.00 0.00 54 1017.2
20260906154504 60 203 0.0 0.0 0.00 0.00 0.00 57 1017.2
20260906154004 59 201 1.0 5.0 0.00 0.00 0.00 60 1017.2
20260906153505 57 280 0.0 0.0 0.00 0.00 0.00 62 1017.2
20260906153004 56 280 0.0 0.0 0.00 0.00 0.00 64 1017.3
20260906152504 55 280 0.0 0.0 0.00 0.00 0.00 66 1017.2